Weather History for Eagle, CO

Change the Weather History Date:

Friday, November 9, 2012

  Actual Average Record
Temperature  
Mean Temperature 50 °F -  
Max Temperature 59 °F 48 °F 69 °F (1980)
Min Temperature 42 °F 20 °F -5 °F (1948)
Degree Days  
Heating Degree Days 14    
Moisture  
Dew Point 29 °F    
Average Humidity 47    
Maximum Humidity 76    
Minimum Humidity 28    
Precipitation  
Precipitation 0.00 in - - ()
Sea Level Pressure  
Sea Level Pressure 29.73 in    
Wind  
Wind Speed 8 mph (SW)    
Max Wind Speed 30 mph    
Max Gust Speed 39 mph    
Visibility 10 miles    
Events      
Averages and records for this station are not official NWS values.
T = Trace of Precipitation, MM = Missing Value Source: NWS Daily Summary

Daily Weather History Graph

Daily Weather History Graph

Search for Another Location

Airport:

Trip Planner

Search our weather history database for the weather conditions in past years. The results will help you decide how hot, cold, wet, or windy it might be!

Date:

Astronomy

Nov. 09, 2012 Rise Set
Actual Time 6:45 AM MST 4:56 PM MST
Civil Twilight 6:17 AM MST 5:25 PM MST
Nautical Twilight 5:45 AM MST 5:57 PM MST
Astronomical Twilight 5:13 AM MST 6:29 PM MST
Moon 1:48 AM MST (11/9) 2:10 PM MST (11/9)
Length of Visible Light 11h 07m
Length of Day
10h 11m
Waning Crescent, 22% of the Moon is Illuminated
Nov 9
Waning Crescent
Nov 13
New
Nov 20
First Quarter
Nov 28
Full
Dec 6
Last Quarter

Hourly Weather History & Observations

Time (MST) Temp. Windchill Dew Point Humidity Pressure Visibility Wind Dir Wind Speed Gust Speed Precip Events Conditions
12:15 AM 42.8 °F 40.1 °F 15.8 °F 34% 29.85 in 10.0 mi SE 4.6 mph - N/A   Clear
12:35 AM 42.8 °F - 15.8 °F 34% 29.83 in 10.0 mi Calm Calm - N/A   Clear
12:55 AM 48.2 °F - 17.6 °F 30% 29.84 in 10.0 mi West 4.6 mph - N/A   Mostly Cloudy
1:15 AM 51.8 °F - 19.4 °F 28% 29.83 in 10.0 mi SW 9.2 mph - N/A   Mostly Cloudy
1:35 AM 53.6 °F - 21.2 °F 28% 29.83 in 10.0 mi SW 11.5 mph 19.6 mph N/A   Partly Cloudy
1:55 AM 51.8 °F - 21.2 °F 30% 29.84 in 10.0 mi WSW 6.9 mph - N/A   Clear
2:15 AM 51.8 °F - 24.8 °F 35% 29.84 in 10.0 mi West 5.8 mph - N/A   Clear
2:35 AM 50.0 °F - 28.4 °F 43% 29.84 in 10.0 mi NW 12.7 mph 16.1 mph N/A   Mostly Cloudy
2:55 AM 48.2 °F - 28.4 °F 46% 29.83 in 10.0 mi NW 6.9 mph - N/A   Scattered Clouds
3:15 AM 50.0 °F - 26.6 °F 40% 29.82 in 10.0 mi West 6.9 mph - N/A   Clear
3:35 AM 48.2 °F - 30.2 °F 50% 29.83 in 10.0 mi NW 8.1 mph - N/A   Scattered Clouds
3:55 AM 48.2 °F - 32.0 °F 54% 29.84 in 10.0 mi NW 10.4 mph - N/A   Mostly Cloudy
4:15 AM 46.4 °F 43.5 °F 32.0 °F 57% 29.84 in 10.0 mi South 5.8 mph - N/A   Scattered Clouds
4:55 AM 46.4 °F 42.4 °F 30.2 °F 53% 29.82 in 10.0 mi WNW 8.1 mph - N/A   Clear
5:15 AM 44.6 °F 42.2 °F 30.2 °F 57% 29.82 in 10.0 mi East 4.6 mph - N/A   Clear
5:35 AM 46.4 °F - 30.2 °F 53% 29.82 in 10.0 mi Calm Calm - N/A   Clear
5:55 AM 44.6 °F 40.7 °F 30.2 °F 57% 29.83 in 10.0 mi SSW 6.9 mph - N/A   Mostly Cloudy
6:15 AM 44.6 °F 38.4 °F 35.6 °F 71% 29.83 in 10.0 mi SW 12.7 mph - N/A   Scattered Clouds
6:35 AM 44.6 °F - 35.6 °F 71% 29.82 in 10.0 mi Calm Calm - N/A   Scattered Clouds
6:45 AM 42.8 °F 38.6 °F 35.6 °F 76% 29.82 in 10.0 mi Variable 6.9 mph - N/A   Mostly Cloudy
7:48 AM 44.6 °F 43.1 °F 33.8 °F 66% 29.83 in 10.0 mi Variable 3.5 mph - N/A   Mostly Cloudy
8:52 AM 50.0 °F - 33.8 °F 54% 29.82 in 10.0 mi SSE 5.8 mph - N/A   Scattered Clouds
9:50 AM 51.8 °F - 30.2 °F 44% 29.79 in 10.0 mi West 3.5 mph - N/A   Scattered Clouds
10:50 AM 55.4 °F - 28.4 °F 36% 29.76 in 10.0 mi SW 29.9 mph 39.1 mph N/A   Scattered Clouds
12:50 PM 59.0 °F - 26.6 °F 29% 29.68 in 10.0 mi SSW 24.2 mph 32.2 mph N/A   Scattered Clouds
1:51 PM 51.8 °F - 35.6 °F 54% 29.69 in 10.0 mi WSW 17.3 mph 31.1 mph N/A   Scattered Clouds
2:50 PM 57.2 °F - 28.4 °F 33% 29.65 in 10.0 mi WSW 18.4 mph 23.0 mph N/A   Scattered Clouds
3:50 PM 55.4 °F - 26.6 °F 33% 29.65 in 10.0 mi SW 21.9 mph 29.9 mph N/A   Mostly Cloudy
4:50 PM 53.6 °F - 28.4 °F 38% 29.63 in 10.0 mi SW 6.9 mph - N/A   Mostly Cloudy
5:50 PM 51.8 °F - 28.4 °F 41% 29.63 in 10.0 mi West 5.8 mph - N/A   Mostly Cloudy
6:45 PM 51.8 °F - 28.4 °F 41% 29.63 in 10.0 mi Calm Calm - N/A   Mostly Cloudy
7:15 PM 51.8 °F - 28.4 °F 41% 29.62 in 10.0 mi NW 3.5 mph - N/A   Mostly Cloudy
7:35 PM 51.8 °F - 28.4 °F 41% 29.63 in 10.0 mi SSW 11.5 mph 16.1 mph N/A   Mostly Cloudy
7:55 PM 51.8 °F - 26.6 °F 38% 29.62 in 10.0 mi WSW 12.7 mph 18.4 mph N/A   Mostly Cloudy
8:15 PM 51.8 °F - 28.4 °F 41% 29.62 in 10.0 mi WSW 11.5 mph 26.5 mph N/A   Mostly Cloudy
8:35 PM 51.8 °F - 30.2 °F 44% 29.63 in 10.0 mi WSW 17.3 mph 23.0 mph N/A   Mostly Cloudy
8:55 PM 51.8 °F - 30.2 °F 44% 29.63 in 10.0 mi SSW 10.4 mph 19.6 mph N/A   Mostly Cloudy
9:15 PM 51.8 °F - 28.4 °F 41% 29.63 in 10.0 mi WSW 4.6 mph - N/A   Mostly Cloudy
9:55 PM 48.2 °F - 32.0 °F 54% 29.62 in 10.0 mi NE 5.8 mph - N/A   Mostly Cloudy
10:15 PM 48.2 °F - 32.0 °F 54% 29.62 in 10.0 mi South 6.9 mph - N/A   Overcast
10:35 PM 48.2 °F - 33.8 °F 58% 29.62 in 10.0 mi South 15.0 mph 33.4 mph N/A   Overcast
10:55 PM 46.4 °F 42.9 °F 35.6 °F 66% 29.62 in 10.0 mi South 6.9 mph 26.5 mph N/A   Mostly Cloudy
11:15 PM 46.4 °F 39.8 °F 33.8 °F 62% 29.61 in 10.0 mi SW 16.1 mph 23.0 mph N/A   Mostly Cloudy
11:35 PM 48.2 °F - 32.0 °F 54% 29.59 in 10.0 mi SSW 11.5 mph 24.2 mph N/A   Mostly Cloudy
11:55 PM 46.4 °F 41.9 °F 33.8 °F 62% 29.57 in 10.0 mi SW 9.2 mph - N/A   Partly Cloudy